Wind_Speed
18 18 18 18 19 19 18 18 17 17 16 16 16 16 16 15 15 14 14 14 13 13 13 12 11 11 10 10 9 9 9 9 8 7 6 5 5 5 5 4 4 3 2
20 20 20 20 20 20 20 20 19 19 18 18 17 17 17 17 17 16 15 15 15 14 14 13 13 13 12 12 11 10 10 10 9 8 7 6 6 6 6 5 5 4 3
22 22 22 22 22 22 21 21 20 20 19 19 19 19 18 18 18 18 17 17 16 16 15 15 15 15 14 14 13 12 11 11 10 9 8 8 7 7 7 6 6 5 5
24 24 24 24 24 23 23 23 22 22 21 20 20 20 20 20 20 19 18 18 18 18 17 16 15 15 15 15 14 14 13 12 11 10 9 9 9 8 8 8 7 6 6
26 26 26 26 26 25 25 24 24 24 23 22 22 22 21 21 21 20 20 19 19 18 18 17 16 16 16 16 15 15 14 13 12 12 11 10 10 9 9 9 8 8 7
28 28 28 28 28 27 26 26 26 26 26 25 24 24 24 23 24 23 22 22 21 20 20 20 18 18 17 17 17 16 15 15 14 13 13 12 11 11 10 10 9 9 9
30 30 31 30 30 29 29 28 28 28 28 27 27 27 27 26 26 26 25 24 24 23 22 21 20 20 19 19 19 18 18 17 16 15 14 14 13 13 12 11 10 10 10
31 32 32 32 32 31 31 31 30 30 30 30 29 29 29 29 28 28 28 26 26 25 24 24 23 22 22 21 21 20 19 19 18 17 16 16 15 14 14 13 12 11 11
32 32 32 33 33 33 33 33 33 33 32 32 31 31 31 30 30 30 29 28 27 27 27 26 26 24 24 24 22 22 22 21 20 19 18 18 17 17 16 15 14 13 13
33 32 33 34 34 34 35 35 35 35 34 33 33 33 33 32 31 30 31 30 30 29 28 28 28 27 27 26 25 25 24 23 22 21 20 20 19 19 18 18 17 16 15
33 33 33 34 34 35 36 36 36 36 35 35 35 35 35 34 34 33 32 32 32 31 30 29 29 29 29 28 28 27 26 25 24 23 22 22 21 21 20 20 19 18 17
33 33 35 35 36 36 36 37 37 37 37 37 37 37 37 37 36 36 35 35 35 33 32 31 31 30 30 30 29 29 28 27 26 25 24 24 23 23 22 22 21 20 19
33 34 35 35 36 37 37 38 38 38 38 39 39 39 40 39 39 38 37 36 36 36 34 32 32 31 31 30 31 31 30 29 28 27 26 26 25 24 25 24 23 22 21
34 34 36 35 36 37 38 38 39 39 40 40 40 41 41 41 41 40 39 39 37 38 37 35 33 33 32 31 31 31 31 31 31 29 28 28 27 26 26 26 25 24 23
35 36 36 36 36 37 38 39 39 39 40 41 42 42 43 43 43 42 41 41 39 39 39 39 36 35 35 33 33 32 32 32 32 32 30 30 29 28 27 27 26 25 24
37 36 37 37 37 37 38 39 39 40 40 41 42 42 43 44 44 44 44 42 41 40 40 41 40 38 37 36 35 35 34 34 33 33 32 32 31 30 29 28 28 27 26
38 37 37 37 37 38 38 39 40 40 41 41 42 42 43 44 44 44 44 44 43 42 41 41 42 40 39 39 37 36 36 36 35 34 34 33 33 32 32 31 30 30 29
39 39 38 38 38 38 39 39 40 41 42 42 42 42 43 44 44 45 45 45 45 44 43 42 43 42 41 40 40 38 38 38 37 36 36 35 34 34 34 33 32 32 31
41 41 41 40 39 39 40 40 41 41 41 42 42 42 43 43 44 44 45 45 46 46 46 45 44 44 43 42 42 41 40 40 40 39 38 37 36 36 36 35 34 33 33
42 42 42 42 41 40 41 40 40 40 41 42 42 42 43 43 43 44 44 46 46 47 47 47 46 47 46 45 44 43 43 42 42 41 40 39 39 38 38 37 36 35 35
43 43 43 43 43 42 41 41 41 41 41 42 42 41 42 43 43 43 44 46 46 47 48 48 48 48 49 47 46 45 44 44 44 43 42 41 40 40 40 39 38 38 37
44 44 44 44 44 43 43 42 42 42 42 42 42 42 43 43 44 45 45 45 46 47 48 49 49 50 51 49 49 48 47 46 46 45 44 43 43 42 41 41 41 40 40
45 45 44 44 44 44 44 44 43 43 42 42 42 43 44 44 44 46 46 46 46 48 49 49 50 51 52 52 51 50 49 48 48 47 47 46 45 45 43 43 44 43 42
45 45 45 45 45 45 44 44 44 43 43 42 43 43 44 44 45 46 47 47 48 49 50 51 52 52 53 52 52 51 50 49 50 49 48 47 46 46 46 45 45 45 44
44 45 45 45 45 46 45 45 45 44 44 43 44 44 44 45 46 46 47 48 49 49 50 51 52 52 53 53 53 52 51 51 51 51 49 49 49 48 47 47 46 46 46
44 44 45 45 45 46 46 46 45 45 44 44 44 44 44 45 45 46 48 48 48 49 49 50 52 52 52 54 54 54 52 52 52 52 51 50 50 50 49 48 47 47 46
Wind_Direction
251 248 247 247 247 246 246 246 244 242 240 241 239 237 237 238 238 237 236 237 238 238 237 238 237 235 237 235 232 228 227 226 226 227 228 228 228 226 225 224 218 212 215
255 251 248 247 247 246 246 246 246 245 244 243 241 241 240 239 239 240 238 239 239 239 239 239 238 236 237 237 235 232 228 228 229 229 231 233 234 230 226 228 228 231 231
255 253 250 248 247 247 247 247 247 247 247 246 245 244 243 241 240 240 242 240 241 242 241 241 240 237 238 238 236 235 233 232 233 231 230 233 234 233 232 232 235 236 236
255 254 252 249 248 247 248 249 249 249 248 248 247 246 245 244 243 242 243 243 242 242 242 242 243 241 242 240 236 237 240 238 240 236 232 232 234 235 235 237 238 240 238
256 255 253 251 249 247 249 249 249 249 249 249 249 248 247 245 244 244 243 242 244 244 244 242 244 245 244 240 238 240 240 237 239 241 236 234 235 234 235 238 239 239 238
257 255 254 252 251 250 249 250 251 251 251 250 250 250 249 247 246 245 245 245 245 245 245 244 243 245 245 242 242 243 241 239 241 243 241 237 237 236 238 239 239 240 237
258 256 254 253 252 251 251 252 252 251 251 250 250 251 250 249 249 247 247 247 245 244 244 244 244 244 245 246 244 244 243 243 243 243 243 242 240 240 239 238 239 240 239
260 257 255 255 253 252 251 251 252 252 252 251 251 252 252 251 250 249 248 247 247 244 243 243 244 245 245 246 244 244 244 243 242 243 244 243 242 242 239 238 239 241 242
260 259 255 254 254 253 253 253 253 253 253 252 252 252 252 251 250 249 248 246 246 245 244 244 244 244 245 245 244 242 243 244 241 241 242 242 241 241 240 240 241 243 244
259 258 258 256 255 254 254 254 254 254 253 253 253 252 251 249 249 248 247 246 245 244 244 244 243 243 244 244 244 242 242 244 242 242 242 243 242 242 243 243 243 244 245
260 259 259 258 257 255 255 255 254 253 253 254 253 252 250 249 249 248 247 246 246 245 244 244 243 243 244 243 243 243 243 243 242 242 242 244 244 244 245 245 245 246 247
261 259 259 260 257 256 256 255 255 255 254 254 253 252 251 249 249 249 249 248 248 247 246 246 245 243 244 244 243 243 243 242 242 242 243 245 246 246 246 246 246 247 248
261 260 259 262 261 258 257 256 256 256 255 255 253 252 252 251 250 249 250 250 249 248 248 248 246 244 244 244 244 244 244 244 243 244 244 245 246 247 246 247 248 249 250
262 262 262 263 262 260 259 258 257 256 256 255 253 252 252 251 249 249 249 249 249 249 249 247 247 246 245 245 245 245 246 245 245 246 245 245 246 247 247 246 247 248 251
263 264 264 263 263 262 260 259 258 257 256 255 254 253 252 251 249 248 248 248 248 248 248 248 246 246 245 244 245 245 246 246 246 246 246 246 246 246 247 246 246 248 251
265 265 264 263 264 264 262 261 259 257 257 256 255 254 253 252 250 249 248 248 247 247 247 248 248 246 246 245 246 246 246 246 246 245 246 246 245 245 246 247 246 247 249
265 265 265 264 264 264 263 262 261 260 258 257 256 254 254 252 251 249 247 247 247 247 247 247 248 246 246 246 246 247 246 246 247 246 246 247 246 246 247 248 248 248 248
264 265 265 264 264 264 264 263 262 262 261 259 257 256 254 252 250 249 248 246 246 246 247 247 248 247 246 247 247 247 247 246 246 246 246 248 248 247 247 247 249 249 248
265 265 265 264 265 264 264 263 263 263 262 260 258 257 255 253 251 249 248 247 247 247 247 247 249 248 247 248 249 248 248 247 246 247 247 247 248 248 248 247 248 249 249
266 266 265 265 265 264 264 264 263 262 261 259 258 257 255 253 251 250 249 248 247 247 247 247 248 248 249 249 249 249 249 247 247 247 246 247 247 248 249 248 249 249 250
266 266 265 265 265 263 264 263 262 261 261 259 258 257 255 254 253 251 250 249 248 247 247 248 249 249 248 249 249 249 248 248 247 247 246 246 246 248 249 248 249 250 250
266 266 265 265 264 264 263 263 262 261 261 259 259 258 256 254 254 252 251 251 250 248 248 248 248 249 248 249 249 248 248 248 248 248 248 247 246 247 247 248 248 249 250
266 266 265 265 263 263 263 262 263 261 260 260 259 258 257 255 254 253 252 252 251 250 249 249 249 249 249 250 249 248 248 248 248 248 248 249 248 247 247 248 248 248 250
266 265 265 265 263 263 263 262 262 262 260 259 259 259 257 256 255 254 252 253 253 252 251 250 249 250 250 249 248 248 248 249 249 248 248 249 248 248 247 248 248 248 249
265 265 265 264 263 262 262 261 260 261 261 260 259 258 257 257 256 255 254 253 253 254 253 252 250 250 250 248 247 246 248 248 249 249 248 248 249 248 247 247 248 249 250
266 265 264 264 263 263 262 261 260 260 260 260 259 258 257 257 256 255 254 254 254 255 255 254 252 251 249 248 247 246 247 247 248 248 248 248 249 248 248 248 248 249 251
Height
5816 5817 5818 5819 5820 5821 5822 5823 5824 5825 5826 5827 5828 5829 5830 5831 5833 5834 5835 5836 5837 5838 5839 5840 5841 5842 5843 5844 5844 5845 5845 5846 5847 5848 5849 5849 5850 5851 5851 5852 5852 5852 5853
5812 5813 5815 5816 5817 5818 5819 5820 5821 5822 5823 5824 5825 5826 5828 5829 5830 5831 5832 5833 5835 5836 5837 5838 5838 5839 5841 5842 5843 5843 5844 5845 5846 5847 5848 5848 5849 5850 5850 5851 5852 5852 5852
5808 5810 5811 5812 5813 5814 5815 5816 5817 5818 5819 5821 5822 5823 5824 5826 5827 5828 5829 5831 5832 5833 5834 5835 5836 5837 5838 5839 5841 5842 5842 5843 5844 5846 5847 5847 5848 5849 5849 5850 5851 5851 5852
5804 5805 5806 5807 5808 5809 5811 5812 5813 5814 5815 5817 5818 5819 5821 5822 5823 5825 5826 5827 5829 5830 5831 5833 5833 5834 5836 5837 5838 5839 5840 5842 5843 5844 5845 5846 5847 5847 5848 5849 5849 5850 5851
5799 5800 5801 5802 5803 5804 5806 5807 5808 5810 5811 5812 5814 5815 5817 5818 5819 5821 5822 5824 5825 5827 5828 5830 5831 5832 5833 5834 5836 5837 5838 5840 5841 5843 5843 5844 5845 5846 5847 5848 5848 5849 5850
5793 5794 5795 5797 5798 5799 5801 5802 5803 5805 5806 5807 5809 5810 5812 5813 5815 5817 5818 5820 5821 5822 5824 5826 5827 5829 5830 5832 5833 5835 5836 5837 5839 5840 5841 5842 5843 5844 5845 5846 5847 5847 5848
5787 5788 5789 5790 5792 5793 5795 5796 5797 5799 5800 5802 5803 5805 5807 5808 5810 5812 5813 5815 5817 5818 5820 5822 5823 5825 5827 5828 5830 5831 5833 5835 5837 5838 5839 5840 5841 5842 5843 5844 5845 5846 5847
5780 5781 5782 5783 5785 5787 5788 5790 5791 5792 5794 5795 5797 5799 5801 5803 5804 5806 5808 5810 5812 5814 5815 5817 5819 5821 5823 5824 5826 5828 5829 5831 5833 5835 5836 5837 5838 5839 5840 5841 5842 5843 5844
5772 5774 5775 5776 5778 5780 5781 5783 5784 5786 5787 5789 5791 5793 5795 5797 5799 5800 5803 5804 5806 5808 5810 5812 5814 5816 5818 5820 5822 5824 5825 5827 5829 5831 5833 5834 5835 5836 5837 5838 5840 5841 5842
5765 5766 5768 5769 5770 5772 5773 5775 5777 5778 5780 5782 5784 5786 5788 5790 5792 5794 5796 5798 5800 5802 5804 5806 5809 5811 5813 5815 5817 5819 5821 5823 5825 5827 5829 5830 5831 5832 5834 5835 5836 5838 5839
5757 5759 5760 5761 5762 5764 5766 5767 5769 5770 5772 5774 5776 5778 5780 5783 5785 5787 5789 5792 5794 5796 5798 5800 5803 5805 5807 5809 5812 5814 5816 5818 5820 5822 5824 5826 5827 5828 5830 5831 5833 5834 5835
5750 5751 5753 5753 5754 5756 5758 5759 5760 5762 5764 5766 5768 5770 5772 5775 5777 5779 5782 5784 5787 5789 5791 5794 5796 5799 5801 5803 5806 5808 5810 5813 5815 5817 5819 5821 5822 5824 5825 5827 5829 5830 5831
5742 5743 5744 5744 5746 5747 5749 5750 5752 5753 5755 5757 5759 5761 5764 5766 5768 5771 5774 5776 5779 5781 5784 5786 5789 5792 5794 5797 5799 5802 5804 5807 5809 5812 5814 5816 5817 5819 5821 5822 5824 5826 5827
5734 5735 5736 5736 5738 5739 5740 5741 5743 5744 5746 5747 5749 5752 5754 5756 5759 5762 5765 5768 5770 5773 5776 5779 5782 5784 5787 5790 5793 5795 5798 5800 5803 5805 5808 5810 5812 5814 5815 5817 5819 5821 5822
5726 5726 5727 5728 5728 5730 5731 5732 5733 5735 5736 5738 5740 5742 5744 5746 5749 5752 5755 5758 5761 5764 5767 5770 5773 5777 5780 5783 5785 5788 5791 5793 5796 5799 5801 5803 5806 5808 5810 5811 5813 5815 5817
5717 5718 5718 5718 5719 5720 5721 5723 5724 5725 5726 5728 5729 5731 5734 5736 5738 5741 5745 5748 5752 5755 5758 5761 5765 5768 5771 5774 5778 5780 5783 5786 5789 5792 5794 5797 5799 5801 5803 5805 5807 5809 5811
5708 5709 5709 5709 5710 5711 5712 5713 5714 5715 5716 5718 5719 5721 5723 5725 5727 5730 5734 5738 5741 5745 5748 5752 5755 5759 5762 5766 5769 5772 5775 5777 5780 5783 5786 5789 5791 5794 5796 5799 5801 5803 5805
5699 5699 5699 5700 5701 5701 5702 5703 5704 5705 5706 5707 5708 5710 5711 5714 5716 5719 5723 5727 5730 5734 5738 5742 5746 5749 5753 5757 5760 5763 5766 5768 5771 5774 5777 5780 5783 5786 5789 5791 5794 5796 5798
5689 5689 5690 5690 5691 5691 5692 5693 5694 5695 5696 5696 5697 5699 5700 5702 5704 5707 5711 5715 5719 5723 5728 5731 5735 5739 5743 5746 5750 5753 5756 5759 5762 5765 5768 5771 5775 5777 5780 5783 5786 5789 5791
5679 5679 5679 5680 5680 5681 5682 5683 5684 5684 5685 5686 5687 5688 5689 5691 5693 5696 5699 5703 5707 5712 5716 5720 5724 5728 5732 5735 5739 5743 5746 5748 5751 5755 5758 5762 5765 5768 5771 5774 5777 5780 5783
5668 5668 5669 5669 5669 5670 5671 5672 5673 5674 5674 5675 5676 5677 5679 5680 5682 5685 5688 5692 5696 5700 5704 5708 5713 5717 5720 5724 5728 5731 5734 5737 5741 5744 5748 5751 5755 5758 5762 5765 5768 5771 5774
5657 5657 5658 5658 5658 5659 5660 5661 5661 5662 5663 5664 5665 5666 5668 5669 5671 5674 5677 5680 5684 5688 5692 5696 5700 5704 5708 5712 5715 5719 5723 5727 5730 5734 5737 5741 5744 5748 5752 5756 5759 5762 5765
5645 5646 5646 5647 5647 5648 5648 5649 5650 5651 5652 5653 5654 5655 5657 5658 5660 5663 5665 5669 5672 5675 5679 5683 5687 5691 5695 5699 5702 5707 5711 5715 5719 5723 5726 5730 5733 5737 5741 5745 5749 5752 5756
5633 5634 5634 5635 5635 5636 5636 5637 5638 5639 5640 5642 5642 5644 5645 5646 5648 5651 5654 5657 5660 5663 5666 5670 5674 5678 5681 5685 5689 5694 5699 5703 5707 5711 5715 5719 5722 5726 5730 5734 5738 5742 5745
5621 5621 5622 5622 5623 5624 5624 5625 5626 5627 5628 5629 5630 5631 5633 5634 5636 5638 5641 5644 5647 5650 5653 5656 5659 5664 5668 5672 5676 5680 5685 5690 5694 5699 5703 5707 5711 5715 5719 5723 5727 5731 5734
5609 5609 5610 5610 5611 5611 5611 5612 5613 5615 5615 5616 5617 5619 5620 5622 5623 5625 5628 5631 5634 5637 5639 5642 5645 5649 5653 5657 5662 5667 5672 5676 5682 5686 5691 5695 5699 5703 5707 5711 5715 5719 5723